Regional Weather Roundup
Issued by NWS Charleston, SC

Current Version | Previous Version | Graphics & Text | Print | Product List | Glossary On
Versions: 1 2 3 4 5 6 7 8 9 10 11 12 13 14 15 16 17 18 19 20 21 22 23 24 25 26 27 28 29 30 31 32 33 34 35 36 37 38 39 40 41 42 43 44 45 46 47 48 49 50
000 ASUS42 KCHS 301013 RWRCHS REGIONAL WEATHER ROUNDUP NATIONAL WEATHER SERVICE CHARLESTON SC 600 AM EDT SAT APR 30 2016 NOTE: "FAIR" INDICATES FEW OR NO CLOUDS BELOW 12,000 FEET WITH NO SIGNIFICANT WEATHER AND/OR OBSTRUCTIONS TO VISIBILITY. NOT ALL STATIONS ARE QUALITY CONTROLLED. USE DATA WITH CAUTION... ESPECIALLY DEWPOINT OBSERVATIONS. SCZ027-030-031-034>040-042>050-301100- ...SOUTHEAST SOUTH CAROLINA... CITY SKY/WX TMP DP RH WIND PRES REMARKS N CHARLESTON PTCLDY 67 65 93 CALM 29.99R FOG WATERFRONT PRK N/A 71 70 96 E6 29.97R MOUNT PLEASANT FAIR 64 63 94 CALM 29.99S FOG JOHNS ISLAND FOG 66 66 100 CALM 29.99R VSB 1/4 PINOPOLIS NOT AVBL MONCKS CORNER LGT RAIN 63 61 94 CALM 29.99R VSB 1/4 SUMMERVILLE FOG 68 68 100 CALM 30.00R VSB 1/4 BEAUFORT MCAS MOCLDY 70 68 93 CALM 29.98R FOG BEAUFORT ARPT FAIR 68 68 100 CALM 29.97S FOG HILTON HEAD IS NOT AVBL WALTERBORO FOG 70 70 100 E3 30.00R VSB<1/4 ALLENDALE CLOUDY 70 68 94 CALM 29.98R FOG ...SOUTHERN MIDLANDS AND PEE DEE... CITY SKY/WX TMP DP RH WIND PRES REMARKS GEORGETOWN FOG 59 59 100 CALM 30.01R VSB 1/2 KINGSTREE FOG 68 64 88 SE3 30.00R VSB 1/2 ORANGEBURG CLOUDY 67 65 93 SE5 29.99R BARNWELL CLOUDY 70 70 100 SE5 29.99R FOG AIKEN FOG 63 63 100 CALM 30.01R VSB 1/4 MANNING NOT AVBL COLUMBIA FOG 66 64 93 SE3 29.99R VSB 1/4 SUMTER CLOUDY 66 66 100 S8 29.98R FOG FLORENCE CLOUDY 69 66 90 CALM 30.01R MYRTLE BEACH CLEAR 64 57 77 CALM 30.02R N MYRTLE BEACH PTCLDY 63 62 97 NE7 30.01R FOG $$ GAZ063-065-086>088-099>101-113>116-118-119-134>141-150-301100- ...SOUTHEAST GEORGIA... CITY SKY/WX TMP DP RH WIND PRES REMARKS SAVANNAH ARPT MOCLDY 69 67 93 SE6 29.97S FOG HUNTER AAF PTCLDY 70 70 100 SE3 29.95R FORT STEWART FOG 68 68 98 CALM 29.94S VSB 1/4 STATESBORO FOG 68 68 100 CALM 29.96R VSB 1/4 SYLVANIA FOG 69 69 100 CALM 29.98R VSB 1/4 CLAXTON CLOUDY 63 63 100 CALM 29.96R ...CSRA...CENTRAL AND FAR SOUTHEAST GEORGIA... CITY SKY/WX TMP DP RH WIND PRES REMARKS THOMSON CLOUDY 62 62 100 E5 29.99F AUGUSTA-BUSH CLEAR 61 60 97 E3 29.96R AUGUSTA-DANIEL PTCLDY 66 63 90 SE7 29.97R SWAINSBORO FAIR 66 63 88 SE3 29.96R VIDALIA CLEAR 64 63 94 CALM 29.96R EASTMAN FAIR N/A N/A N/A CALM 29.96S HAZLEHURST FAIR 69 69 100 CALM 29.94R ALMA CLEAR 66 66 100 CALM 29.95R FOG WAYCROSS FOG 66 66 100 CALM 29.95R VSB 1 JESUP FOG 68 68 100 CALM 29.96R VSB 1/4 BAXLEY FAIR 68 66 94 CALM 29.95R FOG BRUNSWICK FOG 68 66 94 CALM 29.97R VSB<1/4 SAINT SIMONS FOG 70 70 100 SE3 29.96R VSB 1/4 $$ SCZ027-028-034-036>038-045-046-048>050-GAZ119-141-301100- ...LAKE AND SUPPLEMENTAL COASTAL OBSERVATIONS... STATION/POSITION TIME TEMP WIND PRES WAVE SWELL AIR SEA DIR/SP/G HT/PER HT/PER/DIR (UTC) (F) (DEG/KT/KT) (MB) (FT/S) (FT/S/D) WINYAH BAY NOT AVBL LAKE MURRAY 0900 69 160/ 4/ 6 1014.6R ACE BASIN NERRS NOT AVBL FORT PULASKI 0900 72 72 170/ 3/ 4 1014.9R SAPELO ISLAND 0900 70 CALM 1014.0S $$ ANZ835-935-AMZ111-154-330-350-352-354-370-450-454-472-301100- ...C-MAN AND BUOY OBSERVATIONS... STATION/POSITION TIME TEMP WIND PRES WAVE SWELL AIR SEA DIR/SP/G HT/PER HT/PER/DIR (UTC) (F) (DEG/KT/KT) (MB) (FT/S) (FT/S/D) BUOY 41004 0950 73 72 110/ 6/ 8 1015.0R 2/ 9 2/ 9 BUOY 41008 NOT AVBL FOLLY BEACH CMAN 1000 71 90/ 7/ 8 1015.7R CAPERS NEARSHORE 0908 70 70 80/ 4/ 8 1015.3R FRIPP NEARSHORE 0908 71 71 130/ 4/ 4 1014.4R STATION/POSITION TIME TEMP WIND PRES WAVE SWELL AIR SEA DIR/SP/G HT/PER HT/PER/DIR (UTC) (F) (DEG/KT/KT) (MB) (FT/S) (FT/S/D) 5E ST. MARYS GA 0921 73 N/A 1/ 9 FRYING PAN BUOY 0900 70 70 10/ 4/ 4 1015.8R BUOY 41025 0950 60 74 20/ 17/ 21 1017.6R 5/ 8 2/ 50/ 8 CAPE LOOKOUT NC 0900 62 50/ 14/ 15 1017.2R BUOY 41002 0950 71 71 60/ 10/ 12 1016.0S 3/ 9 2/ 60/ 9 BUOY 41010 0920 75 77 200/ 4/ 6 1015.5R ST AUGUSTINE FL 1000 72 70 100/ 5/ 6 1014.8R $$

USA.gov is the U.S. government's official web portal to all federal, state and local government web resources and services.